Powrót do katalogu

THORAD DELTA 1 DEB

AktywnyLEO
NORAD 9795·DEBRIS·🇺🇸 United States

Wystrzelony Nov 15, 1974 z Vandenberg Space Force Base

Loading…

Następne Przeloty (najbliższe 24 godziny)

TLE

ŚwieżeSource: Space-Track

Epoka: Sep 14, 2026, 11:10 UTC

1 09795U 74089EA  26257.46537228  .00000147  00000-0  89407-3 0  9990
2 09795 102.0390 242.8354 0298996  61.3274  88.6401 12.63514490383861

Śledź THORAD DELTA 1 DEB w czasie rzeczywistym z AllMySat

Download on the App Store